Location: Campillo
(40.8621°N, 4.2488°W)
Time: 15:57:09
(UTC+00:00)

Cosmos 1777 Rocket - Pass Details

Date: 03 October 2021
Orbit: 759 x 775 km, 74.0° (Epoch: 23 October)

Event Time Altitude Azimuth Distance (km) Brightness Sun altitude
Rises 05:25:05 0° 322° (NW) 3,225 6.9 -10.4°
Reaches altitude 10° 05:28:15 10° 303° (WNW) 2,294 6.0 -9.8°
Maximum altitude 05:31:26 17° 265° (W) 1,876 5.4 -9.2°
Drops below altitude 10° 05:34:37 10° 226° (SW) 2,287 6.0 -8.6°
Sets 05:37:47 0° 206° (SSW) 3,210 6.9 -8.0°
